Location: Newark
(45.5000°N, 11.4167°E)
Time: 11:08:54
(UTC+00:00)

A-11 Canister half - Pass Details

Date: 22 August 2019
Orbit: 1514 x 1686 km, 47.2° (Epoch: 15 September)

Event Time Altitude Azimuth Distance (km) Brightness Sun altitude
Rises 20:06:42 0° 272° (W) 4,729 12.4 -18.6°
Reaches altitude 10° 20:09:44 10° 274° (W) 3,766 11.8 -19.0°
Maximum altitude 20:19:22 81° 2° (N) 1,634 9.1 -20.2°
Enters shadow 20:28:01 15° 90° (E) 3,476 10.5 -21.3°
Drops below altitude 10° 20:29:24 10° 91° (E) 3,902 - -21.5°
Sets 20:32:36 0° 92° (E) 4,907 - -21.9°
